Find Starlink 31070

NORAD ID: 58639 Int'l Des: 2023-203 Owner: SPXS Country: US Constellation: starlink operational
LEOCIRCULAR

リアルタイム位置

3D地球を読み込み中...

Starlink 31070について

説明を読み込み中...

次回通過

Passes for default location (London). Set your location on the main map for personalized predictions.

高度履歴

Loading altitude history...

軌道要素

1 58639U 23203X 26121.50021308 .00002378 00000-0 95933-4 0 9995
2 58639 43.0016 129.2271 0001821 261.6189 98.4456 15.27569286131637
Epoch: May 1, 2026 • Age: 9 hours

現在のステータス

高度 494.3 km
速度 7.62 km/s
衛星直下点 -40.69°S, 115.8°W
打ち上げ日 Dec 23, 2023
運用期間 2.3 years
タイプ internet

技術仕様

分類 Payload
質量 730.00 kg
乾燥質量 700.00 kg
総質量 730.00 kg
長さ 0.30 m
直径 4.10 m
スパン 29.00 m
形状 Box + pan
製造者 SPXS
バスタイプ Starlink V2M
フェーズステータス In Orbit
所有者/国 SPXS/US

Most Searched